This is the latest recevied weather packets stored in our database for station/object DW9280. If no packets are shown the sender has not sent any weather packets the latest 10 day(s).
| Time | Temp. | Humidity | Pressure | Rain* | Wind** | Luminosity | Snow |
|---|---|---|---|---|---|---|---|
| 1778067847 | 14.44° C | 55% | 1009.6 hPa | 0 mm | - | 397 W/m² | - |
| 1778067547 | 14.44° C | 53% | 1009.7 hPa | 0 mm | - | 408 W/m² | - |
| 1778067250 | 14.44° C | 53% | 1009.6 hPa | 0 mm | - | 496 W/m² | - |
| 1778066951 | 14.44° C | 54% | 1009.6 hPa | 0 mm | - | 513 W/m² | - |
| 1778066650 | 14.44° C | 55% | 1009.5 hPa | 0 mm | - | 585 W/m² | - |
| 1778066351 | 14.44° C | 54% | 1009.6 hPa | 0 mm | - | 513 W/m² | - |
| 1778066048 | 14.44° C | 53% | 1009.5 hPa | 0 mm | - | 483 W/m² | - |
| 1778065747 | 15° C | 56% | 1009.5 hPa | 0 mm | - | 494 W/m² | - |
| 1778065447 | 14.44° C | 57% | 1009.4 hPa | 0 mm | - | 478 W/m² | - |
| 1778065150 | 14.44° C | 57% | 1009.4 hPa | 0 mm | - | 489 W/m² | - |
| 1778064849 | 13.89° C | 59% | 1009.4 hPa | 0 mm | - | 459 W/m² | - |
| 1778064550 | 13.89° C | 60% | 1009.4 hPa | 0 mm | - | 397 W/m² | - |
| 1778064250 | 13.33° C | 63% | 1009.4 hPa | 0 mm | - | 330 W/m² | - |
| 1778064073 | 13.33° C | 64% | 1009.4 hPa | 0 mm | - | 290 W/m² | - |
| 1778063650 | 13.33° C | 64% | 1009.4 hPa | 0 mm | - | 244 W/m² | - |
| 1778063382 | 13.33° C | 64% | 1009.4 hPa | 0 mm | - | 232 W/m² | - |
| 1778063172 | 13.33° C | 62% | 1009.3 hPa | 0 mm | - | 221 W/m² | - |
| 1778062748 | 13.33° C | 61% | 1009.4 hPa | 0 mm | - | 220 W/m² | - |
| 1778062446 | 13.33° C | 61% | 1009.3 hPa | 0 mm | - | 239 W/m² | - |
| 1778062150 | 13.33° C | 63% | 1009.3 hPa | 0 mm | - | 244 W/m² | - |
| 1778061970 | 13.89° C | 63% | 1009.2 hPa | 0 mm | - | 262 W/m² | - |
| 1778061550 | 13.33° C | 65% | 1009.2 hPa | 0 mm | - | 262 W/m² | - |
| 1778061250 | 13.33° C | 66% | 1009.1 hPa | 0 mm | - | 306 W/m² | - |
| 1778061076 | 13.33° C | 71% | 1009.2 hPa | 0 mm | - | 315 W/m² | - |
| 1778060646 | 13.33° C | 72% | 1009.1 hPa | 0 mm | - | 343 W/m² | - |
* Rain latest hour (hover to see other rain measurements)
** Current wind speed in m/s (hover to see current wind gust speed)